Overview Statistics Trail Chart Weather Telemetry Raw packets
 

This is the latest recevied weather packets stored in our database for station/object K7DC. If no packets are shown the sender has not sent any weather packets the latest 10 day(s).

<< 48 49 50 51 52 53 54 >>
Time Temp. Humidity Pressure Rain* Wind** Luminosity Snow
1788307135 35.56° C 32% 1014.8 hPa 0 mm - 151 W/m² -
1788306834 35° C 32% 1014.5 hPa 0 mm - 166 W/m² -
1788306530 35.56° C 32% 1014.7 hPa 0 mm - 182 W/m² -
1788306229 35.56° C 33% 1014.7 hPa 0 mm - 199 W/m² -
1788305925 35.56° C 33% 1015.2 hPa 0 mm - 217 W/m² -
1788305620 36.11° C 32% 1015.1 hPa 0 mm - 238 W/m² -
1788305316 36.11° C 31% 1014.8 hPa 0 mm - 259 W/m² -
1788305011 36.11° C 32% 1015.2 hPa 0 mm - 281 W/m² -
1788304707 36.11° C 32% 1015 hPa 0 mm - 303 W/m² -
1788304403 36.67° C 32% 1015.2 hPa 0 mm - 325 W/m² -
1788304099 36.67° C 32% 1014.8 hPa 0 mm - 348 W/m² -
1788303799 36.67° C 32% 1015.1 hPa 0 mm - 372 W/m² -
1788303494 36.67° C 32% 1015.3 hPa 0 mm - 393 W/m² -
1788303193 37.22° C 32% 1015.3 hPa 0 mm - 415 W/m² -
1788302889 37.22° C 32% 1015.3 hPa 0 mm - 438 W/m² -
1788302585 37.22° C 32% 1015.3 hPa 0 mm - 460 W/m² -
1788302281 37.78° C 32% 1015.2 hPa 0 mm - 480 W/m² -
1788301981 37.78° C 31% 1015.3 hPa 0 mm - 502 W/m² -
1788301678 37.22° C 32% 1015.6 hPa 0 mm - 526 W/m² -
1788301374 37.22° C 32% 1015.4 hPa 0 mm - 545 W/m² -
1788301069 36.67° C 33% 1015.4 hPa 0 mm - 565 W/m² -
1788300764 37.78° C 31% 1015.7 hPa 0 mm - 584 W/m² -
1788300465 37.78° C 31% 1015.6 hPa 0 mm - 602 W/m² -
1788300164 37.78° C 31% 1015.8 hPa 0 mm - 619 W/m² -
1788299863 37.78° C 31% 1015.6 hPa 0 mm - 637 W/m² -

* Rain latest hour (hover to see other rain measurements)
** Current wind speed in m/s (hover to see current wind gust speed)